Regional Weather Roundup
Issued by NWS

Home | Current Version | Previous Version | Text Only | Print | Product List | Glossary On
Versions: 1 2 3 4 5 6 7 8 9 10 11 12 13 14 15 16 17 18 19 20 21 22 23 24 25 26 27 28 29 30 31 32 33 34 35 36 37 38 39 40 41 42 43 44 45 46 47 48 49 50
000
ASUS43 KLMK 230010
RWRKY
KENTUCKY REGIONAL WEATHER ROUNDUP
NATIONAL WEATHER SERVICE LOUISVILLE KY
800 PM EDT FRI AUG 22 2014

NOTE "FAIR" INDICATES FEW OR NO CLOUDS BELOW 12,000 FEET
WITH NO SIGNIFICANT WEATHER AND/OR OBSTRUCTIONS TO VISIBILITY.

KYZ001>023-026-027-061>063-070>075-230100-
WESTERN AND SOUTH CENTRAL KENTUCKY

CITY           SKY/WX    TMP DP  RH WIND       PRES   REMARKS
PADUCAH        MOCLDY    89  76  65 SW5       29.95S HX 100
HENDERSON      CLOUDY    84  75  74 CALM      29.94S HX  92
OWENSBORO      MOCLDY    88  77  69 CALM      29.96R HX 100
HOPKINSVILLE   MOCLDY    87  75  68 SW9       29.97S HX  96
BOWLING GREEN  PTCLDY    88  72  58 W7        29.97S HX  94
GLASGOW        PTCLDY    85  73  66 CALM      29.98R HX  92
$$

KYZ024-025-028>034-038-045-046-053-230100-
NORTH CENTRAL KENTUCKY

CITY           SKY/WX    TMP DP  RH WIND       PRES   REMARKS
LOUISVILLE/SDF MOCLDY    81  72  74 E12       29.98R THUNDER
LOUISVILLE/LOU TSTM      74  70  87 SE21G26   29.98R VSB 3/4
FORT KNOX      CLEAR     84  77  79 SW6       29.97S HX  94
$$

KYZ035>037-039>044-047>052-055>060-089>105-230100-
NORTHEAST KENTUCKY

CITY           SKY/WX    TMP DP  RH WIND       PRES   REMARKS
LEXINGTON      CLOUDY    75  71  87 S3        29.98F
COVINGTON      PTCLDY    83  72  69 NW7       29.98R
FRANKFORT      TSTM      76  73  91 W5        29.98R VSB 1
$$

KYZ054-064>069-076>088-106>120-230100-
SOUTHEAST KENTUCKY

CITY           SKY/WX    TMP DP  RH WIND       PRES   REMARKS
JACKSON        MOCLDY    78  74  87 VRB5      30.00S
LONDON         PTCLDY    85  72  65 W6        30.01R HX  91
SOMERSET       CLOUDY    82  70  65 W3        30.02R
MIDDLESBORO    NOT AVBL
MONTICELLO     CLEAR     83  76  79 CALM      30.02R HX  91
$$



USA.gov is the U.S. government's official web portal to all federal, state and local government web resources and services.